Ana Sayfa
METAR-TAF:

METAR-TAF

Havaalanları :

Terrell Municipal Airport

Terrell, Teksas, Amerika Birleşik Devletleri

Enlem: 32-42-49N, Boylam: 096-16-06W, yükseklik: 144 m

Güncel hava durumu gözlemi

Rapor saat 04:53 UTC de 30 dakika önce yapıldı.
Rüzgar doğudan 4 kt
Sıcaklık 24°C
Nem 74%
Basınç 1013 hPa
Görüş mesafesi: 16.1 km
Açık gökyüzü

METAR: KTRL 190453Z AUTO 10004KT 10SM CLR 24/19 A2992 RMK AO2 SLP125 T02440189

Saat: 00:23 (05:23 UTC)


TAF: eksik

4.000'den fazla havaalanı için hava durumu gözlemleri ve tahminleri (METAR ve TAF raporları).

Kullanılabilir istasyonlar harita üzerinde sarı ve kırmızı noktalarla gösterilir.

İstasyonun adını görmek için fareyi noktanın üzerinde gezdirin.

Sonrasında hava gözlem ve tahminlerini görmek için tıklayın.

Haritayı değiştirmek için: yaklaştırmak için siyah artı işaretli yeşil düğmeye ve uzaklaştırmak için de eksi işaretli düğmeye hızla tıklayın; bitişik haritalar için yeşil okları kullanın.


METAR-TAF: